FDX1153 KMEM-KCLT

Flight info

Callsign FDX1153
Flight time N/A
Altitude 39000
Route GOETZ7 DIYAB SYI TAZZA FILPZ4
Aircraft MD11/H-SDE1E2E3FGHIJ2J3J4J5M1RWXY/LB1D1

Departure

Time 2026-05-07 02:08
Airport Memphis International Airport (KMEM)

Arrival

Time N/A
Airport Charlotte Douglas International Airport (KCLT)
Time Latitude Longitude Altitude Speed Heading
2026-05-07 01:38 35.06273 -89.97619 338 ft 0 kts 270°
2026-05-07 01:53 35.06273 -89.97597 327 ft 4 kts 270°
2026-05-07 01:53 35.06272 -89.97571 335 ft 4 kts 265°
2026-05-07 01:54 35.06274 -89.97551 333 ft 4 kts 213°
2026-05-07 01:54 35.06293 -89.97544 333 ft 4 kts 179°
2026-05-07 01:54 35.06316 -89.97545 333 ft 1 kts 179°
2026-05-07 01:57 35.06312 -89.97545 333 ft 2 kts 179°
2026-05-07 01:57 35.06296 -89.97544 333 ft 2 kts 179°
2026-05-07 01:57 35.06289 -89.97544 335 ft 0 kts 179°
2026-05-07 01:58 35.06283 -89.97544 333 ft 2 kts 179°
2026-05-07 01:58 35.06259 -89.97543 335 ft 4 kts 179°
2026-05-07 01:58 35.06221 -89.97543 335 ft 6 kts 180°
2026-05-07 01:58 35.06175 -89.97543 335 ft 6 kts 180°
2026-05-07 01:59 35.06113 -89.97543 335 ft 11 kts 180°
2026-05-07 01:59 35.06036 -89.97541 335 ft 12 kts 178°
2026-05-07 01:59 35.05962 -89.97526 334 ft 10 kts 167°
2026-05-07 01:59 35.05886 -89.97501 334 ft 14 kts 165°
2026-05-07 02:00 35.05765 -89.97486 336 ft 22 kts 180°
2026-05-07 02:00 35.05589 -89.97487 332 ft 29 kts 180°
2026-05-07 02:00 35.05361 -89.97482 331 ft 36 kts 179°
2026-05-07 02:00 35.05090 -89.97475 332 ft 41 kts 179°
2026-05-07 02:01 35.04806 -89.97470 332 ft 40 kts 180°
2026-05-07 02:01 35.04532 -89.97463 333 ft 40 kts 178°
2026-05-07 02:01 35.04245 -89.97459 334 ft 42 kts 178°
2026-05-07 02:01 35.03959 -89.97453 334 ft 41 kts 179°
2026-05-07 02:02 35.03671 -89.97446 332 ft 43 kts 179°
2026-05-07 02:02 35.03363 -89.97440 332 ft 44 kts 179°
2026-05-07 02:02 35.03052 -89.97433 333 ft 45 kts 179°
2026-05-07 02:02 35.02799 -89.97427 333 ft 27 kts 179°
2026-05-07 02:03 35.02617 -89.97424 333 ft 25 kts 179°
2026-05-07 02:03 35.02467 -89.97427 333 ft 11 kts 192°
2026-05-07 02:03 35.02459 -89.97429 332 ft 0 kts 196°
2026-05-07 02:03 35.02440 -89.97446 330 ft 8 kts 224°
2026-05-07 02:04 35.02430 -89.97512 330 ft 8 kts 287°
2026-05-07 02:04 35.02434 -89.97521 330 ft 0 kts 297°
2026-05-07 02:06 35.02440 -89.97529 327 ft 3 kts 309°
2026-05-07 02:06 35.02452 -89.97540 327 ft 1 kts 327°
2026-05-07 02:07 35.02469 -89.97548 328 ft 2 kts 341°
2026-05-07 02:07 35.02504 -89.97554 330 ft 2 kts 356°
2026-05-07 02:07 35.02660 -89.97560 331 ft 68 kts 359°
2026-05-07 02:08 35.03509 -89.97578 327 ft 171 kts 359°
2026-05-07 02:08 35.04391 -89.97601 476 ft 206 kts
2026-05-07 02:08 35.06375 -89.97680 2089 ft 187 kts
2026-05-07 02:08 35.07180 -89.97753 3396 ft 167 kts 357°
2026-05-07 02:09 35.08377 -89.97833 4263 ft 177 kts 356°
2026-05-07 02:09 35.09610 -89.97732 4621 ft 181 kts 13°
2026-05-07 02:09 35.10691 -89.96907 4963 ft 191 kts 37°
2026-05-07 02:09 35.12030 -89.95457 5015 ft 193 kts 37°
2026-05-07 02:10 35.12675 -89.94698 5008 ft 195 kts 44°
2026-05-07 02:10 35.13495 -89.93318 5294 ft 198 kts 60°
2026-05-07 02:10 35.14021 -89.91739 6248 ft 210 kts 75°
2026-05-07 02:10 35.14184 -89.89972 7074 ft 216 kts 91°
2026-05-07 02:11 35.14161 -89.88104 7956 ft 222 kts 94°
2026-05-07 02:11 35.14108 -89.86115 8574 ft 256 kts 94°
2026-05-07 02:11 35.14099 -89.83862 9323 ft 271 kts 86°
2026-05-07 02:11 35.14360 -89.81548 10242 ft 279 kts 80°
2026-05-07 02:12 35.14732 -89.79188 11089 ft 286 kts 79°
2026-05-07 02:12 35.15138 -89.76767 11941 ft 293 kts 79°
2026-05-07 02:12 35.15558 -89.74294 12759 ft 301 kts 79°
2026-05-07 02:12 35.15987 -89.71760 13584 ft 307 kts 79°
2026-05-07 02:13 35.16418 -89.69198 14202 ft 322 kts 79°
2026-05-07 02:13 35.16890 -89.66364 14336 ft 357 kts 79°
2026-05-07 02:13 35.17407 -89.63247 14464 ft 391 kts 79°
2026-05-07 02:13 35.17969 -89.59864 14592 ft 422 kts 79°
2026-05-07 02:14 35.18571 -89.56243 14885 ft 442 kts 79°
2026-05-07 02:14 35.19190 -89.52526 15563 ft 451 kts 79°
2026-05-07 02:14 35.19758 -89.48714 16217 ft 458 kts 83°
2026-05-07 02:14 35.20145 -89.44809 16899 ft 466 kts 87°
2026-05-07 02:15 35.20429 -89.40829 17570 ft 473 kts 88°
2026-05-07 02:15 35.20674 -89.36781 18200 ft 481 kts 89°
2026-05-07 02:15 35.20915 -89.32672 18800 ft 487 kts 89°
2026-05-07 02:15 35.21165 -89.28528 19435 ft 492 kts 88°
2026-05-07 02:16 35.21439 -89.24341 20027 ft 497 kts 86°
2026-05-07 02:16 35.22025 -89.20152 20608 ft 503 kts 77°
2026-05-07 02:16 35.22927 -89.16060 21175 ft 507 kts 73°
2026-05-07 02:16 35.24000 -89.11936 21760 ft 511 kts 72°
2026-05-07 02:17 35.24950 -89.07698 22360 ft 517 kts 77°
2026-05-07 02:17 35.25682 -89.03365 22937 ft 522 kts 81°
2026-05-07 02:17 35.26286 -88.98955 23555 ft 526 kts 82°
2026-05-07 02:17 35.26823 -88.94571 24072 ft 530 kts 83°
2026-05-07 02:18 35.27357 -88.90084 24595 ft 535 kts 83°
2026-05-07 02:18 35.27902 -88.85563 25135 ft 539 kts 83°
2026-05-07 02:18 35.28464 -88.81001 25668 ft 544 kts 83°
2026-05-07 02:18 35.29040 -88.76410 26231 ft 548 kts 83°
2026-05-07 02:19 35.29628 -88.71777 26773 ft 553 kts 83°
2026-05-07 02:19 35.30222 -88.67102 27319 ft 557 kts 84°
2026-05-07 02:19 35.30820 -88.62395 27849 ft 562 kts 84°
2026-05-07 02:19 35.31419 -88.57650 28379 ft 566 kts 84°
2026-05-07 02:20 35.32021 -88.52864 28915 ft 571 kts 84°
2026-05-07 02:20 35.32626 -88.48035 29418 ft 575 kts 84°
2026-05-07 02:20 35.33231 -88.43186 29969 ft 579 kts 84°
2026-05-07 02:20 35.33841 -88.38281 30411 ft 583 kts 84°
2026-05-07 02:21 35.34450 -88.33367 30920 ft 584 kts 84°
2026-05-07 02:21 35.35060 -88.28431 31397 ft 586 kts 84°
2026-05-07 02:21 35.35668 -88.23494 31894 ft 587 kts 84°
2026-05-07 02:21 35.36270 -88.18592 32376 ft 588 kts 84°
2026-05-07 02:22 35.36873 -88.13655 32848 ft 590 kts 84°
2026-05-07 02:22 35.37474 -88.08679 33312 ft 590 kts 84°
2026-05-07 02:22 35.38064 -88.03690 33767 ft 592 kts 85°
2026-05-07 02:22 35.38653 -87.98688 34179 ft 593 kts 85°
2026-05-07 02:23 35.39245 -87.93691 34588 ft 593 kts 84°
2026-05-07 02:23 35.39840 -87.88689 34978 ft 593 kts 84°
2026-05-07 02:23 35.40438 -87.83686 35372 ft 593 kts 84°
2026-05-07 02:23 35.41037 -87.78669 35737 ft 594 kts 84°
2026-05-07 02:24 35.41634 -87.73655 36103 ft 594 kts 84°
2026-05-07 02:24 35.42227 -87.68644 36441 ft 594 kts 84°
2026-05-07 02:24 35.42812 -87.63694 36803 ft 594 kts 84°
2026-05-07 02:24 35.43401 -87.58682 37143 ft 594 kts 84°
2026-05-07 02:25 35.43987 -87.53669 37486 ft 594 kts 84°
2026-05-07 02:25 35.44572 -87.48654 37811 ft 594 kts 84°
2026-05-07 02:25 35.45154 -87.43643 38166 ft 594 kts 84°
2026-05-07 02:25 35.45734 -87.38629 38484 ft 594 kts 84°
2026-05-07 02:26 35.46313 -87.33607 38778 ft 594 kts 83°
2026-05-07 02:26 35.46889 -87.28592 38954 ft 595 kts 83°
2026-05-07 02:26 35.48042 -87.18485 39011 ft 601 kts 83°
2026-05-07 02:27 35.49190 -87.08315 39010 ft 602 kts 84°
2026-05-07 02:27 35.50305 -86.98133 39018 ft 602 kts 84°
2026-05-07 02:28 35.51418 -86.88019 39017 ft 602 kts 84°
2026-05-07 02:28 35.52545 -86.77832 39017 ft 602 kts 84°
2026-05-07 02:29 35.53666 -86.67645 39017 ft 602 kts 84°
2026-05-07 02:29 35.54778 -86.57450 39019 ft 602 kts 84°
2026-05-07 02:30 35.55880 -86.47252 39017 ft 602 kts 84°
2026-05-07 02:30 35.57163 -86.37087 39015 ft 602 kts 81°
2026-05-07 02:31 35.58659 -86.26970 39020 ft 602 kts 80°
2026-05-07 02:31 35.60182 -86.16847 38984 ft 602 kts 80°
2026-05-07 02:32 35.61658 -86.06800 39018 ft 600 kts 80°
2026-05-07 02:32 35.63118 -85.96697 39018 ft 600 kts 81°
2026-05-07 02:33 35.64569 -85.86584 39017 ft 600 kts 81°
2026-05-07 02:33 35.66015 -85.76464 39018 ft 600 kts 81°
2026-05-07 02:34 35.67452 -85.66347 39017 ft 600 kts 81°
2026-05-07 02:34 35.68874 -85.56264 39033 ft 603 kts 81°
2026-05-07 02:35 35.70304 -85.46068 39016 ft 605 kts 81°
2026-05-07 02:35 35.71701 -85.35850 39010 ft 605 kts 81°
2026-05-07 02:36 35.73087 -85.25692 39002 ft 605 kts 81°
2026-05-07 02:36 35.74487 -85.15485 39000 ft 605 kts 81°
2026-05-07 02:37 35.75881 -85.05306 38998 ft 605 kts 81°
2026-05-07 02:37 35.77268 -84.95086 38982 ft 603 kts 81°
2026-05-07 02:38 35.78645 -84.84876 38991 ft 603 kts 81°
2026-05-07 02:38 35.80009 -84.74696 38983 ft 603 kts 81°
2026-05-07 02:39 35.81361 -84.64502 38970 ft 602 kts 82°
2026-05-07 02:39 35.82345 -84.54267 38972 ft 601 kts 86°
2026-05-07 02:40 35.83011 -84.44013 38973 ft 601 kts 87°
2026-05-07 02:40 35.83666 -84.33741 38970 ft 601 kts 87°
2026-05-07 02:41 35.84358 -84.23543 38975 ft 601 kts 86°
2026-05-07 02:41 35.85067 -84.13268 38978 ft 601 kts 86°
2026-05-07 02:42 35.85764 -84.03007 38980 ft 601 kts 86°
2026-05-07 02:42 35.86449 -83.92733 38988 ft 601 kts 86°
2026-05-07 02:43 35.87124 -83.82467 38987 ft 601 kts 86°
2026-05-07 02:43 35.87791 -83.72189 38983 ft 601 kts 86°
2026-05-07 02:44 35.88449 -83.61912 38975 ft 601 kts 86°
2026-05-07 02:44 35.89064 -83.51725 38960 ft 600 kts 86°
2026-05-07 02:45 35.88742 -83.41496 38967 ft 593 kts 106°
2026-05-07 02:45 35.86554 -83.31769 38964 ft 586 kts 115°
2026-05-07 02:46 35.84038 -83.22186 38948 ft 586 kts 114°
2026-05-07 02:46 35.82877 -83.17405 38666 ft 576 kts 112°
2026-05-07 02:46 35.81805 -83.12737 38179 ft 571 kts 111°
2026-05-07 02:47 35.80754 -83.08022 37482 ft 571 kts 111°
2026-05-07 02:47 35.79718 -83.03311 36758 ft 569 kts 111°
2026-05-07 02:47 35.78689 -82.98617 36067 ft 567 kts 111°
2026-05-07 02:47 35.77656 -82.93933 35381 ft 566 kts 112°
2026-05-07 02:48 35.76619 -82.89261 34706 ft 564 kts 112°
2026-05-07 02:48 35.75582 -82.84613 34031 ft 563 kts 112°
2026-05-07 02:48 35.74539 -82.79960 33241 ft 561 kts 112°
2026-05-07 02:48 35.73503 -82.75345 32500 ft 557 kts 111°
2026-05-07 02:49 35.72471 -82.70758 31790 ft 550 kts 111°
2026-05-07 02:49 35.71454 -82.66273 31071 ft 541 kts 111°
2026-05-07 02:49 35.70440 -82.61833 30267 ft 535 kts 110°
2026-05-07 02:49 35.69437 -82.57448 29377 ft 528 kts 110°
2026-05-07 02:50 35.68450 -82.53137 28533 ft 521 kts 110°
2026-05-07 02:50 35.67476 -82.48876 27709 ft 513 kts 110°
2026-05-07 02:50 35.66530 -82.44745 26967 ft 505 kts 110°
2026-05-07 02:50 35.65585 -82.40618 26213 ft 498 kts 110°
2026-05-07 02:51 35.64644 -82.36525 25450 ft 493 kts 109°
2026-05-07 02:51 35.63714 -82.32488 24721 ft 488 kts 109°
2026-05-07 02:51 35.62791 -82.28490 24006 ft 484 kts 109°
2026-05-07 02:51 35.61868 -82.24515 23154 ft 483 kts 109°
2026-05-07 02:52 35.60955 -82.20579 22289 ft 479 kts 109°
2026-05-07 02:52 35.60046 -82.16653 21464 ft 476 kts 109°
2026-05-07 02:52 35.59156 -82.12810 20671 ft 472 kts 109°
2026-05-07 02:52 35.58260 -82.08944 19900 ft 468 kts 109°
2026-05-07 02:53 35.57401 -82.05108 19139 ft 464 kts 107°
2026-05-07 02:53 35.56637 -82.01265 18368 ft 461 kts 105°
2026-05-07 02:53 35.55933 -81.97436 17538 ft 458 kts 105°
2026-05-07 02:53 35.55257 -81.93634 16734 ft 452 kts 105°
2026-05-07 02:54 35.54597 -81.89898 15975 ft 445 kts 105°
2026-05-07 02:54 35.53940 -81.86202 15206 ft 438 kts 105°
2026-05-07 02:54 35.53290 -81.82582 14520 ft 430 kts 105°
2026-05-07 02:54 35.52656 -81.79056 14119 ft 414 kts 105°
2026-05-07 02:55 35.52050 -81.75692 13803 ft 397 kts 106°
2026-05-07 02:55 35.51451 -81.72410 13101 ft 392 kts 106°
2026-05-07 02:55 35.50855 -81.69162 12387 ft 389 kts 106°
2026-05-07 02:55 35.50268 -81.65953 11963 ft 378 kts 105°
2026-05-07 02:56 35.49892 -81.63884 11724 ft 370 kts 106°
2026-05-07 02:56 35.49355 -81.60843 11364 ft 360 kts 102°
2026-05-07 02:56 35.49217 -81.57812 11086 ft 351 kts 90°
2026-05-07 02:56 35.49403 -81.54887 10885 ft 336 kts 85°
2026-05-07 02:57 35.49781 -81.51092 10222 ft 338 kts 84°
2026-05-07 02:57 35.49986 -81.49168 10032 ft 333 kts 84°
2026-05-07 02:57 35.50275 -81.46438 9868 ft 321 kts 84°
2026-05-07 02:57 35.50554 -81.43733 9820 ft 318 kts 84°
2026-05-07 02:58 35.50825 -81.41055 9695 ft 313 kts 84°
2026-05-07 02:58 35.51090 -81.38384 9445 ft 317 kts 85°
2026-05-07 02:58 35.51353 -81.35706 8881 ft 313 kts 85°
2026-05-07 02:58 35.51612 -81.33060 8354 ft 310 kts 85°
2026-05-07 02:59 35.51867 -81.30435 7987 ft 311 kts 85°
2026-05-07 02:59 35.52122 -81.27811 7653 ft 307 kts 85°
2026-05-07 02:59 35.52369 -81.25261 7555 ft 295 kts 85°
2026-05-07 02:59 35.52602 -81.22882 7387 ft 263 kts 85°
2026-05-07 03:00 35.52816 -81.20708 6658 ft 257 kts 85°
2026-05-07 03:00 35.53046 -81.18553 5883 ft 253 kts 85°
2026-05-07 03:00 35.53281 -81.16425 5198 ft 250 kts 85°
2026-05-07 03:00 35.53521 -81.14247 4826 ft 262 kts 85°
2026-05-07 03:01 35.53769 -81.12017 4440 ft 265 kts 85°
2026-05-07 03:01 35.54020 -81.09777 4095 ft 264 kts 84°
2026-05-07 03:01 35.54268 -81.07581 3991 ft 256 kts 85°
2026-05-07 03:01 35.54511 -81.05419 3985 ft 256 kts 85°
2026-05-07 03:02 35.54752 -81.03259 3978 ft 254 kts 84°
2026-05-07 03:02 35.54992 -81.01110 3953 ft 254 kts 84°
2026-05-07 03:02 35.55225 -80.98957 3957 ft 253 kts 88°
2026-05-07 03:02 35.54992 -80.96887 3932 ft 237 kts 121°
2026-05-07 03:03 35.54077 -80.95280 3958 ft 228 kts 140°
2026-05-07 03:03 35.52980 -80.93867 3952 ft 228 kts 142°
2026-05-07 03:03 35.51868 -80.92468 3947 ft 229 kts 142°
2026-05-07 03:03 35.50746 -80.91075 3952 ft 228 kts 143°
2026-05-07 03:04 35.49460 -80.90098 3941 ft 209 kts 175°
2026-05-07 03:04 35.48103 -80.90100 3978 ft 194 kts 199°
2026-05-07 03:04 35.46820 -80.90493 3971 ft 181 kts 202°
2026-05-07 03:04 35.45654 -80.90853 3964 ft 170 kts 201°
2026-05-07 03:05 35.44520 -80.91198 3957 ft 169 kts 201°
2026-05-07 03:05 35.43379 -80.91575 3977 ft 170 kts 202°
2026-05-07 03:05 35.42231 -80.91950 3967 ft 171 kts 202°
2026-05-07 03:05 35.41087 -80.92323 3949 ft 169 kts 202°
2026-05-07 03:06 35.39966 -80.92690 3954 ft 166 kts 202°
2026-05-07 03:06 35.38845 -80.93057 3949 ft 166 kts 202°
2026-05-07 03:06 35.37723 -80.93409 3954 ft 166 kts 201°
2026-05-07 03:06 35.36609 -80.93765 3962 ft 164 kts 202°
2026-05-07 03:07 35.35508 -80.94121 3956 ft 165 kts 202°
2026-05-07 03:07 35.34385 -80.94459 3971 ft 169 kts 194°
2026-05-07 03:07 35.33203 -80.94484 3977 ft 173 kts 187°
2026-05-07 03:07 35.32005 -80.94439 3981 ft 172 kts 186°
2026-05-07 03:08 35.30813 -80.94347 3979 ft 171 kts 186°
2026-05-07 03:08 35.29616 -80.94033 3990 ft 180 kts 172°
2026-05-07 03:08 35.28417 -80.93540 3988 ft 182 kts 172°
2026-05-07 03:08 35.27211 -80.93066 3987 ft 182 kts 172°